Regional Weather Roundup
Issued by NWS Upton, NY

Current Version | Previous Version | Graphics & Text | Print | Product List | Glossary Off
Versions: 1 2 3 4 5 6 7 8 9 10 11 12 13 14 15 16 17 18 19 20 21 22 23 24 25 26 27

000
ASUS41 KOKX 301805
RWROKX

REGIONAL WEATHER ROUNDUP
NATIONAL WEATHER SERVICE NEW YORK NY
200 PM EDT MON MAY 30 2016

NOTE: "FAIR" INDICATES FEW OR NO CLOUDS BELOW 12,000 FEET WITH NO
SIGNIFICANT WEATHER AND/OR OBSTRUCTIONS TO VISIBILITY.

NYZ071-072-176-178-NJZ106-104-301900-
NEW YORK CITY METRO AREA


CITY           SKY/WX    TMP DP  RH WIND       PRES   REMARKS
CENTRAL PARK   CLOUDY    79  66  64 VRB3      29.98F
LAGUARDIA APRT CLOUDY    81  72  74 S8        29.95S
KENNEDY INTL   CLOUDY    76  71  85 S12       29.97F
NEWARK/LIBERTY CLOUDY    81  66  60 VRB5      29.95F
BRNX BOT. GARD   N/A     81  64  57 S3        29.97F
TETERBORO      CLOUDY    82  64  54 VRB7      29.93F
$$

NYZ177-179-078>081-301900-
LONG ISLAND NEW YORK

CITY           SKY/WX    TMP DP  RH WIND       PRES   REMARKS
FARMINGDALE    CLOUDY    77  69  76 S10       29.97S
ISLIP          CLOUDY    71  67  87 SW6       29.97S
SHIRLEY        CLOUDY    68  66  93 S7        29.98F FOG
RIVERHEAD        N/A     72  70  94 CALM      29.96S
WESTHAMPTON    FOG       65  64  97 SW9       29.99F VSB 1/4
EAST HAMPTON   FOG       64  64  97 SW8       29.98F VSB 1/4
MONTAUK POINT    N/A     67  66  97 SW10G21   29.99F
$$

NYZ052-065-067-301900-
HUDSON VALLEY

CITY           SKY/WX    TMP DP  RH WIND       PRES   REMARKS
WHITE PLAINS   CLOUDY    79  68  69 SW3       29.95F
NEWBURGH       MOSUNNY   77  68  73 W6        29.96F
MONTGOMERY     MOSUNNY   80  69  69 S8        29.93F
POUGHKEEPSIE   MOSUNNY   81  66  60 VRB6      29.92F
ALBANY         MOSUNNY   80  65  59 VRB7      29.90F
$$

NJZ001-105-106-008-010-013-015-019>022-104-301900-
NEW JERSEY

CITY           SKY/WX    TMP DP  RH WIND       PRES   REMARKS
NEWARK/LIBERTY CLOUDY    81  66  60 VRB5      29.95F
TETERBORO      CLOUDY    82  64  54 VRB7      29.93F
CALDWELL       CLOUDY    81  65  58 VRB5      29.95F
MORRISTOWN     PTSUNNY   81  68  65 SW7       29.96S
SOMERVILLE     CLOUDY    81  66  60 S6        29.94F
SUSSEX         MOSUNNY   80  66  62 SW7       29.94F
ANDOVER          N/A     80  64  58 VRB6      29.96F
TRENTON        CLOUDY    79  67  66 VRB5      29.96F
MILLVILLE      LGT RAIN  73  70  90 S3        30.00S FOG
ATLANTIC CITY  LGT RAIN  72  71  97 S9        29.99F FOG
WRIGHTSTOWN    CLOUDY    78  70  74 W7        29.95F
TOMS RIVER     CLOUDY    75  70  83 S9        29.98S
BELMAR         CLOUDY    77  70  79 S7        29.98F
$$

PAZ047>061-062-071-301900-
EASTERN PENNSYLVANIA

CITY           SKY/WX    TMP DP  RH WIND       PRES   REMARKS
PHILADELPHIA   PTSUNNY   78  66  66 SW6       29.98F
ALLENTOWN      MOSUNNY   82  64  54 CALM      29.96F
SCRANTON       MOSUNNY   82  60  47 S6        29.95F
$$

CTZ002-004>006-009-010-012-RIZ004-006-007-MAZ004-011-015-301900-
SOUTHERN NEW ENGLAND
 IN CT

CITY           SKY/WX    TMP DP  RH WIND       PRES   REMARKS
BRADLEY INTL   CLOUDY    77  68  73 S12       29.93F
HARTFORD       CLOUDY    78  69  73 S7        29.94F
DANBURY        PTSUNNY   78  66  66 CALM      29.96F
WTRBRY/OXFORD  PTSUNNY   75  64  69 S6        29.98F
BRIDGEPORT     CLOUDY    76  67  73 SW9       29.96F
MERIDEN        CLOUDY    76  68  76 S8        29.95F
NEW HAVEN      CLOUDY    72  68  87 VRB6      29.96F FOG
CHESTER        CLOUDY    72  72 100 SW7       29.97F
GROTON         FOG       65  65 100 SW9       29.96F VSB 1/2
WILLIMANTIC    CLOUDY    75  68  78 SW5       29.96F

 IN RI

CITY           SKY/WX    TMP DP  RH WIND       PRES   REMARKS
PROVIDENCE     CLOUDY    70  66  87 CALM      29.96F
BLOCK ISLAND   FOG       64  64 100 SW15      29.98F VSB 1/2
WESTERLY       CLOUDY    69  65  86 SW10      29.97F FOG

 IN MA

CITY           SKY/WX    TMP DP  RH WIND       PRES   REMARKS
BOSTON         CLOUDY    65  63  93 CALM      29.94F
WORCESTER      CLOUDY    70  65  84 S8        29.96F
WESTFIELD      CLOUDY    77  67  71 S10       29.93F
PROVINCETOWN   LGT RAIN  60  59  96 CALM      29.97F FOG
NANTUCKET      LGT RAIN  64  62  93 SW14      30.00F VSB 1
$$

ANZ330-335-338-340-345-350-353-355-301900-
COASTAL MARINE OBSERVATIONS


STATION/POSITION TIME  SKY/WX   TEMP    WIND        PRES    VSBY  WAVE
                                AIR SEA DIR/SP/G                  HT/PER
                 (UTC)          (F)     (DEG/KT/KT) (MB)    (MI)  (FT/S)
NY HARB ENTRANCE 1650            61 58  170/ 10/ 12 1014.5          3/ 8
20S FIRE ISLAND  1650            62 61  190/ 10/ 12 1015.0          3/ 7
GREAT SOUTH BAY  1700            65 71  200/ 12/ 14   N/A
23 SSW MONTAUK P 1750            63 60  210/ 12/ 14 1014.7          3/ 7
15 E BARNEGAT LI 1722               61                N/A           3/ 8
HUDSON CANYON    1650            63 59              1016.5          3/ 6
KINGS POINT      1700            75 62              1014.3
EXECUTION ROCKS  NOT AVBL
CENTRAL LI SOUND 1700            67     190/  6/  6   N/A           0
EASTERN LI SOUND 1700            62 55  200/ 10/ 12   N/A
ROBBINS REEF     1700            73     160/ 10/ 11 1014.0
$$


>>>>>>>>>>>>>>>>>>>>>>>>>>>> KEY <<<<<<<<<<<<<<<<<<<<<<<<<<<
>                                                          <
>     SKY/WX - SKY CONDITION/PRESENT WEATHER               <
>     TMP    - TEMPERATURE IN FAHRENHEIT                   <
>     DP     - DEWPOINT IN FAHRENHEIT                      <
>     RH     - RELATIVE HUMIDITY IN PERCENT                <
>     WIND   - DIRECTION AND SPEED IN MPH                  <
>     PRES   - MEAN SEA LEVEL PRESSURE IN INCHES OF HG     <
>     WCI    - WIND CHILL INDEX                            <
>     VSB    - VISIBILITY IN MILES                         <
>     HX     - HEAT INDEX                                  <
>     TC     - TEMPERATURE IN CELSIUS                      <
>     VRB    - VARIABLE WIND DIRECTION                     <
>                                                          <
>>>>>>>>>>>>>>>>>>>>>>>>>>>> KEY <<<<<<<<<<<<<<<<<<<<<<<<<<<






USA.gov is the U.S. government's official web portal to all federal, state and local government web resources and services.